RH
32 19 18 17 11 10 14 18 17 16 23 52 63 56 52 48 39 36 37 43 42 51 96 100 100 100 100 99 98 92 76 87 92 80 78 74 74 75 75 80 84 89 86
39 20 21 18 11 12 20 22 21 19 28 67 74 74 68 57 51 41 38 50 57 54 85 100 100 99 100 100 100 87 98 90 92 83 76 100 98 94 83 84 79 80 91
49 30 25 17 12 14 24 28 25 23 38 76 79 78 75 68 62 56 45 47 60 65 80 99 99 100 99 99 96 94 96 100 91 85 77 99 98 99 94 91 92 84 86
53 47 28 15 11 14 28 32 27 26 56 82 86 84 82 79 71 69 58 57 57 69 81 100 100 99 97 98 85 82 96 100 98 98 82 70 86 99 99 99 96 98 81
39 27 28 15 12 18 29 32 30 27 67 85 90 88 85 85 81 81 71 65 58 71 98 98 100 90 100 96 94 96 100 100 93 97 95 82 75 80 92 99 100 99 82
31 33 30 16 16 16 25 31 31 29 71 88 90 92 92 90 90 87 86 71 64 70 100 100 100 98 100 93 92 94 84 98 100 88 96 90 78 74 76 83 98 98 84
34 34 26 19 19 17 26 31 34 30 74 89 93 96 95 94 94 94 93 84 67 70 100 100 100 100 86 96 93 100 85 98 100 88 86 90 81 67 72 72 95 99 87
26 26 24 24 20 19 29 34 37 35 77 91 96 96 96 95 94 95 98 91 74 78 100 100 100 99 99 100 100 99 97 92 99 89 81 87 86 72 66 69 71 96 98
32 30 26 27 19 19 33 39 39 39 77 95 97 96 96 95 95 93 100 94 85 84 98 100 100 94 90 100 100 100 100 96 99 90 84 75 86 84 72 67 66 61 95
31 30 30 27 17 20 36 39 39 40 69 96 98 97 96 97 95 93 100 100 86 97 100 100 100 100 65 100 100 100 100 100 98 96 84 69 71 86 81 72 71 66 63
31 31 32 23 18 20 37 38 36 38 56 95 96 96 96 96 95 95 100 100 98 96 98 100 100 100 95 92 100 100 100 100 100 99 92 77 70 90 87 78 74 70 72
33 34 32 20 18 19 32 36 34 36 42 94 96 96 96 95 95 96 100 100 98 100 100 100 100 100 94 88 92 100 100 98 100 99 99 83 72 76 78 79 76 75 72
32 35 26 19 19 20 27 36 34 36 38 76 95 96 96 96 96 98 100 96 98 99 98 100 100 100 92 87 98 93 100 100 98 96 96 88 77 69 67 69 74 75 72
33 32 22 19 18 20 25 33 35 36 37 41 94 96 95 96 96 97 97 98 99 99 99 99 100 99 99 90 75 94 100 99 100 99 100 93 81 81 80 80 74 73 71
34 31 22 19 17 18 20 30 34 36 36 38 65 95 96 96 96 97 97 98 99 100 100 100 100 100 100 100 78 88 88 100 100 100 100 98 90 83 80 71 74 74 74
29 29 23 19 18 17 20 27 31 35 37 38 44 94 96 95 96 96 96 96 99 100 100 100 100 100 99 100 96 98 97 98 94 100 100 100 99 93 81 75 72 70 67
20 24 24 21 19 18 19 23 28 32 36 36 38 72 95 95 96 97 96 98 98 100 100 100 100 100 100 100 93 63 72 98 98 100 100 100 95 97 88 84 85 80 75
18 21 23 23 21 19 20 23 26 30 32 34 35 42 88 95 96 96 96 97 98 99 100 100 100 100 98 100 97 97 81 100 100 100 99 98 99 98 95 90 93 93 92
20 22 24 24 24 21 21 23 26 26 28 30 36 40 59 93 93 96 96 96 97 96 97 99 99 99 99 100 100 100 99 100 99 100 98 99 100 92 95 95 98 98 97
23 23 24 26 26 24 22 23 26 28 26 29 35 39 43 74 94 92 90 96 95 98 99 94 93 98 97 96 99 98 100 100 100 100 100 100 99 96 100 99 97 97 97
28 25 24 26 28 28 24 24 25 29 32 30 33 35 35 42 73 91 83 83 86 97 98 94 92 92 94 93 95 98 100 100 100 100 100 100 98 100 98 91 100 98 93
30 27 26 26 29 30 28 25 26 28 30 32 33 36 33 34 42 65 86 76 76 77 80 94 94 95 95 93 92 89 90 95 99 100 100 100 100 99 98 100 99 100 100
30 30 29 28 28 30 31 28 26 29 30 29 29 37 39 34 33 39 57 83 87 79 79 73 80 87 88 88 88 88 86 85 86 94 99 99 99 100 100 100 98 100 100
29 30 30 29 30 30 32 32 29 28 32 33 28 28 41 39 33 34 39 56 83 96 100 98 85 85 91 98 96 87 83 82 82 78 87 93 97 100 100 100 100 100 100
30 29 27 28 32 33 34 36 33 29 31 34 33 30 34 40 40 36 36 58 82 99 98 99 98 100 100 100 100 89 87 91 83 78 72 82 90 97 100 100 100 100 100
31 29 33 34 35 35 38 41 38 33 31 35 34 31 36 43 39 40 39 38 42 69 100 100 100 96 100 100 90 85 82 83 91 86 75 84 91 94 98 100 100 100 100
Wind_Speed
15 16 21 29 30 32 32 31 31 32 35 38 36 36 35 32 33 32 35 37 37 36 38 39 28 59 55 53 54 48 47 48 45 41 35 30 26 20 17 17 18 20 15
18 18 22 29 30 32 30 29 30 31 34 35 34 34 36 34 35 33 36 39 37 35 38 41 30 51 56 57 61 52 48 51 50 47 42 30 29 28 25 24 23 22 17
21 20 24 28 31 29 28 28 30 31 33 32 34 34 34 35 36 35 37 38 36 37 38 40 35 38 55 50 50 52 53 47 54 51 42 27 18 37 31 29 28 27 22
19 18 24 28 30 28 27 28 29 29 31 30 31 32 34 36 35 36 37 36 36 38 38 41 45 26 62 62 55 54 54 53 56 50 42 44 30 35 23 34 31 32 26
11 17 23 26 27 26 27 27 27 27 29 28 28 31 34 35 37 36 36 34 35 37 37 36 41 47 56 60 55 59 60 57 58 58 49 45 32 41 31 32 41 38 32
15 19 23 24 25 25 24 24 26 27 28 27 27 28 32 33 35 34 32 33 34 35 32 38 37 43 44 55 56 58 58 57 57 63 56 52 49 44 38 30 41 37 34
15 19 21 22 25 25 23 24 26 28 28 27 26 27 28 30 32 32 29 28 33 37 27 29 33 35 45 63 60 63 62 60 58 62 60 56 51 44 42 38 39 40 38
13 17 18 20 23 24 22 23 25 28 29 26 26 26 25 27 29 28 27 25 29 38 26 28 31 29 32 68 67 65 63 66 64 65 58 59 56 50 44 43 37 26 34
14 16 17 19 21 22 21 22 24 27 28 26 26 25 23 22 25 26 26 22 23 35 30 25 27 46 36 54 66 65 67 69 66 66 62 61 58 53 46 43 37 33 23
14 15 15 18 20 20 19 19 21 25 27 26 26 25 22 20 21 22 22 18 22 34 32 24 21 34 49 35 65 65 63 68 63 58 63 63 60 55 50 42 41 33 28
13 13 14 16 19 19 18 19 21 24 27 25 26 25 21 17 14 16 15 13 24 30 28 22 22 26 40 41 52 60 63 67 63 58 60 63 60 57 52 47 44 42 36
11 11 12 15 17 18 18 19 21 23 26 26 26 24 21 15 10 9 8 12 23 23 19 20 24 27 27 28 29 45 59 61 64 62 56 62 59 59 55 50 48 46 41
9 8 9 13 16 18 17 19 19 22 25 27 27 25 23 18 12 6 3 10 15 13 13 19 21 28 35 34 25 34 50 62 64 66 63 62 58 56 55 50 50 49 45
8 6 8 11 15 17 16 18 18 21 25 27 27 26 25 22 16 14 4 1 2 6 11 16 17 27 33 35 29 31 48 59 60 65 62 63 59 59 54 50 50 50 48
7 5 6 10 14 16 15 15 17 20 23 26 27 27 26 23 20 17 14 9 5 6 9 16 17 20 23 31 39 38 34 40 55 61 60 60 57 55 52 48 51 51 50
7 5 5 8 12 15 16 16 17 19 22 24 26 26 26 25 24 20 20 18 17 16 14 15 16 17 25 30 34 37 30 32 36 50 58 59 54 53 52 48 48 50 48
7 6 5 5 8 13 15 16 17 19 20 21 23 25 27 26 26 24 21 25 25 24 19 16 14 12 10 32 35 30 37 37 41 52 59 55 50 51 49 49 48 49 47
6 6 5 4 5 9 13 14 15 17 18 20 22 24 26 26 26 25 24 25 26 25 22 19 13 10 7 14 33 31 33 38 45 50 50 51 51 45 47 49 47 46 46
7 7 6 5 5 6 10 13 14 15 16 18 21 23 23 25 26 27 26 25 26 24 23 21 19 16 13 11 7 24 30 43 38 39 47 47 46 41 37 45 46 47 47
9 8 8 6 6 5 7 11 13 15 17 18 19 20 20 21 24 24 25 23 24 23 21 21 20 19 20 16 12 7 17 23 31 29 34 41 38 29 37 34 38 45 46
10 10 9 8 7 6 6 8 11 14 16 16 16 17 19 19 20 21 22 22 21 20 22 22 21 20 18 18 19 12 1 7 17 17 23 34 36 39 34 32 40 39 32
11 10 10 9 9 8 7 7 8 11 14 15 15 15 16 18 17 18 20 20 22 22 21 20 21 20 19 18 18 19 15 10 6 12 17 20 34 44 44 44 39 38 34
11 11 11 10 11 11 9 7 7 9 11 14 15 14 14 15 15 17 18 21 23 24 26 25 22 23 22 21 17 16 16 15 10 8 12 22 28 35 44 44 41 38 40
12 11 12 12 12 12 11 8 7 7 9 12 13 12 13 13 13 14 17 20 23 25 25 25 23 24 24 24 22 17 14 13 13 13 11 14 20 30 30 38 43 46 42
12 11 11 10 10 12 12 10 9 7 7 10 12 11 10 11 12 14 15 17 19 20 22 24 24 25 25 25 24 22 19 16 16 16 14 11 14 16 21 26 33 43 43
11 10 10 11 10 13 14 11 10 8 7 8 10 10 8 8 9 11 12 13 14 15 17 18 21 19 20 21 21 20 20 19 15 12 12 12 10 9 11 14 20 24 37
Wind_Direction
278 298 319 325 323 323 320 317 318 318 317 314 310 301 296 287 275 264 256 247 239 233 231 222 208 217 215 213 204 201 204 204 201 189 188 193 198 196 209 191 194 184 186
274 285 314 321 323 323 320 316 315 317 317 314 308 301 298 290 280 269 258 253 249 229 230 223 213 209 202 205 207 205 205 208 202 193 186 178 192 194 197 198 198 204 205
274 280 311 321 324 322 319 314 314 316 317 313 306 301 296 289 281 273 266 261 256 235 222 222 210 210 196 198 197 193 201 200 204 203 191 171 191 192 195 199 206 207 211
277 280 315 323 323 322 315 312 312 316 317 313 306 301 297 291 283 278 272 269 259 246 224 222 217 206 210 217 211 209 204 201 203 200 197 200 196 178 186 199 206 209 212
261 290 320 322 321 320 312 312 312 315 317 313 307 300 294 290 286 283 278 270 262 252 227 223 214 208 202 212 209 200 199 204 206 203 196 202 202 196 183 188 197 206 210
281 296 315 318 320 318 313 313 314 320 321 316 309 300 294 291 286 283 281 271 263 254 232 222 224 205 209 213 214 212 204 204 210 209 205 203 202 196 194 186 195 203 207
297 303 309 313 319 319 320 318 320 323 326 320 314 305 297 290 285 282 279 271 263 254 232 215 214 212 213 217 218 209 207 202 207 211 209 208 208 209 199 198 195 203 209
308 305 306 310 316 320 322 320 323 326 331 325 320 312 302 291 284 280 272 264 266 253 242 205 200 207 220 211 212 212 213 202 211 215 215 212 212 213 211 208 207 197 209
297 307 304 308 317 323 322 323 327 329 333 331 329 323 310 297 287 277 267 259 267 252 254 221 202 208 222 210 204 209 203 202 208 215 217 218 216 216 215 219 223 218 200
302 303 303 310 324 325 322 325 328 332 336 337 337 332 322 306 287 274 267 262 265 260 252 216 200 206 207 213 202 203 206 203 204 208 216 220 221 218 216 219 226 228 235
309 305 308 314 325 330 325 329 332 337 341 342 344 343 337 314 292 277 270 268 265 264 245 219 202 193 212 228 194 201 208 205 205 205 214 219 221 217 218 221 227 230 231
311 304 309 320 330 335 329 335 337 342 346 347 349 354 350 335 321 292 285 266 264 258 230 214 206 191 198 222 219 197 202 210 205 206 208 217 220 221 222 223 227 231 233
316 303 312 324 333 338 334 338 342 345 349 350 353 2 360 2 356 2 12 253 257 249 224 213 202 202 202 211 219 210 199 201 210 208 214 218 219 221 223 226 230 230 233
319 303 316 331 337 341 338 340 346 348 353 355 356 6 7 15 17 36 40 336 218 204 199 201 195 201 205 206 227 219 203 212 214 215 213 217 222 225 227 228 229 230 232
307 289 316 333 340 343 344 343 349 353 357 358 359 6 15 21 30 43 61 56 68 116 145 161 182 193 193 199 209 225 235 205 206 213 218 222 227 227 229 231 228 229 230
295 276 300 329 342 346 348 349 354 359 359 2 4 8 17 24 33 42 61 77 85 97 113 132 141 163 195 199 192 214 219 222 223 215 217 220 225 231 232 236 237 236 232
287 267 283 318 342 351 352 353 356 360 1 2 10 13 15 24 30 42 44 56 66 77 88 101 115 133 157 187 191 217 232 228 229 224 219 221 228 229 230 235 238 240 242
284 265 275 298 336 354 356 358 357 358 2 4 13 18 15 20 30 40 44 56 60 63 66 69 76 77 96 198 210 214 219 220 219 215 219 225 221 225 228 232 233 236 239
283 266 270 286 312 348 358 0 1 1 2 9 14 18 21 19 26 32 41 47 52 53 54 55 54 52 45 37 173 184 192 204 205 213 229 231 228 230 233 234 231 235 237
284 265 266 271 290 322 350 359 1 4 5 9 12 14 19 24 27 31 36 45 53 54 55 54 50 45 43 35 19 165 179 184 191 198 203 226 229 234 239 233 239 242 239
281 259 263 268 272 296 321 347 358 2 4 7 7 10 16 22 27 29 36 41 53 51 55 56 50 44 42 35 35 35 107 201 197 198 191 209 218 226 235 240 239 236 240
274 261 258 261 260 272 292 316 342 358 0 2 4 9 14 18 21 26 34 40 46 52 51 52 54 47 43 44 40 40 33 11 268 238 224 205 211 222 230 232 239 243 247
272 258 261 254 253 259 272 288 316 339 354 359 359 6 14 19 18 25 33 38 43 43 43 43 42 36 34 32 36 34 27 22 8 316 269 245 232 220 223 236 240 247 242
268 265 256 255 252 252 258 272 288 316 339 350 356 358 6 19 26 28 33 36 41 41 41 38 40 32 30 27 21 23 22 21 13 2 331 289 266 248 236 232 233 240 245
277 264 257 255 256 244 245 256 270 291 322 339 347 351 360 8 24 31 35 35 43 40 31 31 29 37 30 22 17 15 16 17 17 7 353 324 286 270 251 240 229 227 229
261 258 255 253 248 238 235 244 258 274 300 324 337 338 348 4 15 28 39 44 43 43 44 43 31 30 28 23 22 19 15 18 18 2 14 11 358 325 293 260 239 226 222